Regional Weather Roundup
Issued by NWS

Home | Current Version | Previous Version | Graphics & Text | Print | Product List | Glossary On
Versions: 1 2 3 4 5 6 7 8 9 10 11 12 13 14 15 16 17 18 19 20 21 22 23 24 25 26 27 28 29 30 31 32 33 34 35 36 37 38 39 40 41 42 43 44 45 46 47 48 49 50
000
ASUS43 KDMX 290203
RWRIA

WEATHER ROUNDUP FOR IOWA
NATIONAL WEATHER SERVICE DES MOINES IA
900 PM CDT THU APR 28 2016

NOTE: "FAIR" INDICATES FEW OR NO CLOUDS BELOW 12,000 FEET WITH NO
SIGNIFICANT WEATHER AND/OR OBSTRUCTIONS TO VISIBILITY.

* - THESE STATIONS ARE NOT NWS STATIONS...THUS NOT UNDER NWS
QUALITY CONTROL.  THEY ALSO DO NOT REPORT WEATHER SUCH
AS PRECIPITATION OR FOG.

IAZ001>003-012>014-020>022-031>034-043>046-290300-
   NORTHWEST IOWA

CITY           SKY/WX    TMP DP  RH WIND       PRES   REMARKS
CARROLL *      CLOUDY    45  43  93 N12       30.03R
CHEROKEE *     CLOUDY    42  40  93 N7        30.06R
DENISON *      CLOUDY    45  41  87 NW8       30.03R
LE MARS *      CLOUDY    43  39  87 N8        30.08S
ORANGE CITY *  CLOUDY    41  37  87 NE5       30.07R
SHELDON *      CLOUDY    39  39 100 N12       30.06R FOG     WCI  32
SIOUX CITY     CLOUDY    45  39  79 N7        30.07R
SPENCER        CLOUDY    41  36  82 N10       30.06R
STORM LAKE *   CLOUDY    43  39  87 N12       30.05R
$$

IAZ055>058-069>071-079>083-090>094-290300-
   SOUTHWEST IOWA

CITY           SKY/WX    TMP DP  RH WIND       PRES   REMARKS
ATLANTIC *     CLOUDY    46  41  81 NW10      30.05R
AUDUBON *      CLOUDY    46  41  81 N8        30.04R
CLARINDA *       N/A    N/A N/A N/A MISG        N/A
COUNCIL BLFS * CLOUDY    46  41  81 N6        30.05R
CRESTON *      CLOUDY    48  45  87 N8        30.04R
HARLAN  *      CLOUDY    45  41  87 N9        30.08R
LAMONI         CLOUDY    49  44  83 NW10      30.04R
RED OAK *      CLOUDY    48  43  81 N8        30.06R
SHENANDOAH *   CLOUDY    50  45  81 N5        30.06R
$$

IAZ047>049-059>061-072>074-084-290300-
   CENTRAL IOWA

CITY           SKY/WX    TMP DP  RH WIND       PRES   REMARKS
AMES           CLOUDY    49  45  86 N8        30.01R
ANKENY *       CLOUDY    50  48  93 N9        30.00R
BOONE *        CLOUDY    46  45  93 N8        30.00S
CHARITON *     CLOUDY    50  46  87 NW8G14    30.01R
DES MOINES     CLOUDY    50  45  83 NW9       30.00R
GRINNELL*      CLOUDY    50  48  93 N10       29.99R
KNOXVILLE *    RAIN      50  48  93 N9        29.99R
MARSHALLTOWN   CLOUDY    48  46  93 NE8       30.00R
NEWTON *       CLOUDY    50  50 100 N9        29.99R
PELLA *        CLOUDY    50  49  96 N5        30.01R
$$

IAZ004>006-015-016-023>025-035-036-290300-
   NORTH CENTRAL IOWA

CITY           SKY/WX    TMP DP  RH WIND       PRES   REMARKS
ALGONA *       CLOUDY    41  39  93 N9        30.06R
CLARION *      CLOUDY    45  43  93 N8        30.03R
ESTHERVILLE    CLOUDY    39  37  92 N9        30.06R WCI  33
FORT DODGE *   CLOUDY    45  39  81 N6        30.04R
MASON CITY     CLOUDY    42  40  92 N12       30.05R
FOREST CITY *  CLOUDY    41  39  93 N8        30.04S
WEBSTER CITY * CLOUDY    46  45  93 N9        30.01R
IOWA FALLS *   CLOUDY    46  45  93 N5        30.03R
$$

IAZ007>011-017>019-026>030-037>042-050>054-066-290300-
   NORTHEAST IOWA

CITY           SKY/WX    TMP DP  RH WIND       PRES   REMARKS
CEDAR RAPIDS   CLOUDY    47  47 100 NE8       29.98R FOG
CHARLES CITY * CLOUDY    43  43 100 NE8       30.03R
CLINTON *      CLOUDY    47  46  97 E8        30.00R FOG
DECORAH *      CLOUDY    41  41 100 NE7       30.03R
DUBUQUE        CLOUDY    42  42 100 NE9       30.01R FOG
MONTICELLO *   CLOUDY    45  43  93 NE6       30.00R
OELWEIN *      CLOUDY    45  45 100 NE8       30.02R
WATERLOO       CLOUDY    45  42  89 NE8       30.02R
$$

IAZ064-065-067-068-078-290300-
   EAST CENTRAL IOWA

CITY           SKY/WX    TMP DP  RH WIND       PRES   REMARKS
DAVENPORT      CLOUDY    50  49  96 NE7       29.99R FOG
IOWA CITY      MOCLDY    50  48  93 N8        29.99R
MT. PLEASANT * CLOUDY    55  50  82 SW3       29.99R
MUSCATINE *    CLOUDY    54  50  87 W3        29.99R
QUAD CITIES    CLOUDY    53  49  86 E8        29.98R
$$

IAZ062-063-075>077-085>089-095>099-290300-
   SOUTHEAST IOWA

CITY           SKY/WX    TMP DP  RH WIND       PRES   REMARKS
BURLINGTON     CLOUDY    55  49  80 W6        29.99R
FAIRFIELD *    CLOUDY    54  48  82 W6        29.99R
FORT MADISON * CLOUDY    54  48  82 CALM      30.00R
KEOKUK *       CLOUDY    55  48  76 W6        29.99S
OSKALOOSA *    CLOUDY    52  48  87 W10       29.99R
OTTUMWA        CLOUDY    52  47  83 W13       29.99R
WASHINGTON *   CLOUDY    54  52  94 W5        29.99S
$$

ABBREVIATIONS USED IN REMARKS
   TC - TEMPERATURES IN CELSIUS
  WCI - WIND CHILL INDEX
   HX - HEAT INDEX
  VSB - VISIBILITY
$$





USA.gov is the U.S. government's official web portal to all federal, state and local government web resources and services.